H1 CPF 2 NER 2021 11 23 9 327 01 glonass122 H2 1004103 9122 37139 2021 11 23 0 0 0 2021 11 26 23 45 0 900 1 1 0 0 0 1 H9 10 0 59541 0.00000 0 -22470539.731 -6897974.681 9715943.369 10 0 59541 900.00000 0 -21100168.036 -6720279.283 12516405.571 10 0 59541 1800.00000 0 -19389909.814 -6642158.797 15071697.748 10 0 59541 2700.00000 0 -17382074.614 -6706774.468 17331922.721 10 0 59541 3600.00000 0 -15128663.556 -6948925.462 19253061.846 10 0 59541 4500.00000 0 -12689331.404 -7393381.489 20797838.026 10 0 59541 5400.00000 0 -10129043.142 -8053660.695 21936435.252 10 0 59541 6300.00000 0 -7515526.208 -8931304.117 22647061.377 10 0 59541 7200.00000 0 -4916627.426 -10015675.852 22916344.752 10 0 59541 8100.00000 0 -2397686.464 -11284295.090 22739559.418 10 0 59541 9000.00000 0 -19035.538 -12703683.268 22120677.363 10 0 59541 9900.00000 0 2166271.412 -14230687.839 21072249.966 10 0 59541 10800.00000 0 4114407.974 -15814224.455 19615124.088 10 0 59541 11700.00000 0 5792325.246 -17397362.482 17778001.255 10 0 59541 12600.00000 0 7178842.221 -18919665.143 15596850.989 10 0 59541 13500.00000 0 8265235.995 -20319686.086 13114191.651 10 0 59541 14400.00000 0 9055311.939 -21537518.572 10378254.012 10 0 59541 15300.00000 0 9564955.290 -22517292.139 7442044.405 10 0 59541 16200.00000 0 9821186.662 -23209514.673 4362325.524 10 0 59541 17100.00000 0 9860763.678 -23573164.522 1198533.748 10 0 59541 18000.00000 0 9728388.894 -23577448.049 -1988347.314 10 0 59541 18900.00000 0 9474599.576 -23203151.799 -5136937.164 10 0 59541 19800.00000 0 9153427.195 -22443534.896 -8186612.708 10 0 59541 20700.00000 0 8819923.315 -21304725.670 -11078646.573 10 0 59541 21600.00000 0 8527653.614 -19805606.301 -13757310.196 10 0 59541 22500.00000 0 8326262.949 -17977189.475 -16170922.912 10 0 59541 23400.00000 0 8259211.484 -15861511.260 -18272829.080 10 0 59541 24300.00000 0 8361775.266 -13510083.525 -20022286.371 10 0 59541 25200.00000 0 8659394.335 -10981966.776 -21385249.500 10 0 59541 26100.00000 0 9166437.889 -8341539.688 -22335034.931 10 0 59541 27000.00000 0 9885439.684 -5656054.055 -22852853.736 10 0 59541 27900.00000 0 10806838.282 -2993073.037 -22928201.415 10 0 59541 28800.00000 0 11909236.470 -417896.236 -22559095.459 10 0 59541 29700.00000 0 13160173.158 2008923.504 -21752153.634 10 0 59541 30600.00000 0 14517379.783 4233869.295 -20522508.472 10 0 59541 31500.00000 0 15930472.716 6212459.803 -18893556.232 10 0 59541 32400.00000 0 17343014.243 7910874.729 -16896541.703 10 0 59541 33300.00000 0 18694858.091 9307136.206 -14569983.587 10 0 59541 34200.00000 0 19924682.094 10391794.085 -11958948.817 10 0 59541 35100.00000 0 20972601.210 11168083.767 -9114187.858 10 0 59541 36000.00000 0 21782749.150 11651547.688 -6091146.656 10 0 59541 36900.00000 0 22305716.883 11869134.803 -2948874.558 10 0 59541 37800.00000 0 22500741.398 11857815.577 251149.445 10 0 59541 38700.00000 0 22337548.173 11662771.744 3446247.179 10 0 59541 39600.00000 0 21797765.493 11335239.320 6573801.366 10 0 59541 40500.00000 0 20875847.449 10930099.245 9572517.280 10 0 59541 41400.00000 0 19579464.142 10503321.547 12383657.627 10 0 59541 42300.00000 0 17929341.436 10109375.463 14952222.860 10 0 59541 43200.00000 0 15958557.051 9798719.340 17228050.812 10 0 59541 44100.00000 0 13711323.911 9615480.139 19166811.822 10 0 59541 45000.00000 0 11241314.162 9595423.343 20730878.448 10 0 59541 45900.00000 0 8609597.034 9764300.545 21890052.478 10 0 59541 46800.00000 0 5882279.838 10136644.652 22622135.705 10 0 59541 47700.00000 0 3127953.466 10715062.455 22913334.932 10 0 59541 48600.00000 0 415050.981 11490052.252 22758495.685 10 0 59541 49500.00000 0 -2190769.799 12440351.399 22161162.954 10 0 59541 50400.00000 0 -4629110.910 13533795.932 21133470.931 10 0 59541 51300.00000 0 -6847084.372 14728653.034 19695867.066 10 0 59541 52200.00000 0 -8801237.052 15975367.681 17876678.705 10 0 59541 53100.00000 0 -10459073.876 17218648.107 15711533.315 10 0 59541 54000.00000 0 -11800120.529 18399801.573 13242645.514 10 0 59541 54900.00000 0 -12816486.001 19459222.334 10517986.004 10 0 59541 55800.00000 0 -13512906.246 20338928.533 7590349.285 10 0 59541 56700.00000 0 -13906271.075 20985043.311 4516338.059 10 0 59541 57600.00000 0 -14024657.310 21350118.445 1355283.195 10 0 59541 58500.00000 0 -13905910.945 21395205.941 -1831881.032 10 0 59541 59400.00000 0 -13595838.656 21091593.347 -4983766.607 10 0 59541 60300.00000 0 -13146084.434 20422132.470 -8039686.352 10 0 59541 61200.00000 0 -12611779.206 19382107.550 -10940793.514 10 0 59541 62100.00000 0 -12049060.179 17979607.250 -13631187.022 10 0 59541 63000.00000 0 -11512561.604 16235384.515 -16058963.676 10 0 59541 63900.00000 0 -11052979.800 14182208.749 -18177199.211 10 0 59541 64800.00000 0 -10714812.444 11863734.729 -19944841.344 10 0 59541 65700.00000 0 -10534365.356 9332931.932 -21327498.991 10 0 59541 66600.00000 0 -10538109.791 6650135.675 -22298113.148 10 0 59541 67500.00000 0 -10741459.502 3880796.790 -22837496.486 10 0 59541 68400.00000 0 -11148020.477 1093019.199 -22934730.432 10 0 59541 69300.00000 0 -11749347.430 -1645015.885 -22587410.355 10 0 59541 70200.00000 0 -12525220.742 -4267634.930 -21801731.791 10 0 59541 71100.00000 0 -13444436.223 -6714160.512 -20592413.004 10 0 59541 72000.00000 0 -14466078.618 -8931200.127 -18982452.054 10 0 59541 72900.00000 0 -15541229.081 -10874639.402 -17002719.584 10 0 59541 73800.00000 0 -16615037.765 -12511254.910 -14691391.874 10 0 59541 74700.00000 0 -17629076.084 -13819876.696 -12093232.365 10 0 59541 75600.00000 0 -18523869.978 -14792049.125 -9258733.483 10 0 59541 76500.00000 0 -19241506.347 -15432159.696 -6243134.285 10 0 59541 77400.00000 0 -19728200.255 -15757028.218 -3105333.033 10 0 59541 78300.00000 0 -19936711.077 -15794972.501 93283.084 10 0 59541 79200.00000 0 -19828501.375 -15584389.911 3290066.194 10 0 59541 80100.00000 0 -19375542.974 -15171915.905 6422367.006 10 0 59541 81000.00000 0 -18561689.949 -14610239.850 9428797.024 10 0 59541 81900.00000 0 -17383557.291 -13955673.931 12250465.387 10 0 59541 82800.00000 0 -15850866.074 -13265581.990 14832162.491 10 0 59541 83700.00000 0 -13986239.722 -12595781.288 17123464.153 10 0 59541 84600.00000 0 -11824460.351 -11998030.909 19079732.398 10 0 59541 85500.00000 0 -9411218.090 -11517716.031 20662991.786 10 0 59542 0.00000 0 -6801408.416 -11191827.938 21842663.724 10 0 59542 900.00000 0 -4057050.173 -11047325.533 22596145.599 10 0 59542 1800.00000 0 -1244917.676 -11099947.234 22909223.501 10 0 59542 2700.00000 0 1566016.678 -11353520.881 22776314.923 10 0 59542 3600.00000 0 4307217.785 -11799798.402 22200537.903 10 0 59542 4500.00000 0 6913192.421 -12418818.615 21193609.105 10 0 59542 5400.00000 0 9323955.337 -13179779.375 19775575.848 10 0 59542 6300.00000 0 11487256.429 -14042379.088 17974390.261 10 0 59542 7200.00000 0 13360479.418 -14958568.452 15825336.393 10 0 59542 8100.00000 0 14912137.053 -15874636.876 13370323.421 10 0 59542 9000.00000 0 16122905.088 -16733545.091 10657059.990 10 0 59542 9900.00000 0 16986156.451 -17477406.087 7738126.463 10 0 59542 10800.00000 0 17507977.582 -18050011.292 4669962.944 10 0 59542 11700.00000 0 17706669.933 -18399297.849 1511791.995 10 0 59542 12600.00000 0 17611760.056 -18479655.748 -1675504.395 10 0 59542 13500.00000 0 17262561.378 -18253980.568 -4830533.718 10 0 59542 14400.00000 0 16706348.382 -17695388.281 -7892547.710 10 0 59542 15300.00000 0 15996218.946 -16788522.025 -10802583.142 10 0 59542 16200.00000 0 15188732.876 -15530397.296 -13504569.214 10 0 59542 17100.00000 0 14341423.343 -13930750.259 -15946382.784 10 0 59542 18000.00000 0 13510282.968 -12011873.569 -18080833.349 10 0 59542 18900.00000 0 12747327.367 -9807944.412 -19866560.803 10 0 59542 19800.00000 0 12098336.138 -7363869.558 -21268830.119 10 0 59542 20700.00000 0 11600864.502 -4733691.627 -22260208.353 10 0 59542 21600.00000 0 11282608.490 -1978618.448 -22821110.966 10 0 59542 22500.00000 0 11160192.743 835247.095 -22940206.123 10 0 59542 23400.00000 0 11238433.531 3639386.444 -22614667.527 10 0 59542 24300.00000 0 11510110.518 6365454.465 -21850268.557 10 0 59542 25200.00000 0 11956260.271 8947873.113 -20661312.935 10 0 59542 26100.00000 0 12546982.937 11326322.944 -19070399.898 10 0 59542 27000.00000 0 13242731.808 13448028.753 -17108024.966 10 0 59542 27900.00000 0 13996034.724 15269742.856 -14812020.668 10 0 59542 28800.00000 0 14753576.981 16759340.931 -12226845.247 10 0 59542 29700.00000 0 15458558.975 17896960.952 -9402731.026 10 0 59542 30600.00000 0 16053228.674 18675634.543 -6394707.735 10 0 59542 31500.00000 0 16481480.171 19101381.536 -3261519.794 10 0 59542 32400.00000 0 16691405.496 19192761.903 -64459.592 10 0 59542 33300.00000 0 16637687.872 18979903.046 3133858.478 10 0 59542 34200.00000 0 16283730.865 18503043.865 6270756.332 10 0 59542 35100.00000 0 15603429.072 17810658.772 9284754.896 10 0 59542 36000.00000 0 14582501.700 16957243.721 12116812.802 10 0 59542 36900.00000 0 13219329.822 16000861.449 14711513.243 10 0 59542 37800.00000 0 11525260.290 15000553.756 17018172.636 10 0 59542 38700.00000 0 9524363.041 14013734.097 18991847.029 10 0 59542 39600.00000 0 7252652.826 13093674.069 20594215.022 10 0 59542 40500.00000 0 4756809.847 12287192.334 21794319.523 10 0 59542 41400.00000 0 2092455.291 11632644.672 22569154.445 10 0 59542 42300.00000 0 -677943.310 11158299.770 22904086.370 10 0 59542 43200.00000 0 -3487446.975 10881167.670 22793105.292 10 0 59542 44100.00000 0 -6267199.527 10806327.592 22238902.365 10 0 59542 45000.00000 0 -8949053.741 10926779.976 21252776.296 10 0 59542 45900.00000 0 -11468160.289 11223825.119 19854373.369 10 0 59542 46800.00000 0 -13765413.115 11667948.590 18071269.107 10 0 59542 47700.00000 0 -15789651.935 12220172.749 15938402.343 10 0 59542 48600.00000 0 -17499533.583 12833814.750 13497374.664 10 0 59542 49500.00000 0 -18864998.485 13456575.353 10795630.254 10 0 59542 50400.00000 0 -19868275.376 14032870.008 7885532.764 10 0 59542 51300.00000 0 -20504386.695 14506304.519 4823357.079 10 0 59542 52200.00000 0 -20781137.368 14822192.525 1668214.778 10 0 59542 53100.00000 0 -20718590.421 14930010.887 -1519067.100 10 0 59542 54000.00000 0 -20348053.528 14785692.255 -4677094.165 10 0 59542 54900.00000 0 -19710619.800 14353660.952 -7745059.660 10 0 59542 55800.00000 0 -18855323.707 13608528.880 -10663886.406 10 0 59542 56700.00000 0 -17836988.130 12536381.859 -13377336.299 10 0 59542 57600.00000 0 -16713850.576 11135602.997 -15833068.547 10 0 59542 58500.00000 0 -15545065.408 9417198.216 -17983628.518 10 0 59542 59400.00000 0 -14388183.882 7404608.630 -19787350.178 10 0 59542 60300.00000 0 -13296714.833 5133014.791 -21209156.189 10 0 59542 61200.00000 0 -12317866.040 2648158.130 -22221241.023 10 0 59542 62100.00000 0 -11490559.502 4724.297 -22803623.985 10 0 59542 63000.00000 0 -10843803.390 -2735649.073 -22944560.730 10 0 59542 63900.00000 0 -10395489.682 -5506661.750 -22640803.707 10 0 59542 64800.00000 0 -10151669.641 -8239846.389 -21897704.215 10 0 59542 65700.00000 0 -10106340.209 -10867169.448 -20729151.151 10 0 59542 66600.00000 0 -10241753.547 -13323631.272 -19157344.289 10 0 59542 67500.00000 0 -10529240.104 -15549757.761 -17212403.033 10 0 59542 68400.00000 0 -10930513.792 -17493879.137 -14931814.834 10 0 59542 69300.00000 0 -11399406.797 -19114098.802 -12359731.132 10 0 59542 70200.00000 0 -11883962.351 -20379867.323 -9546122.286 10 0 59542 71100.00000 0 -12328797.299 -21273092.552 -6545806.650 10 0 59542 72000.00000 0 -12677633.476 -21788736.140 -3417372.576 10 0 59542 72900.00000 0 -12875888.341 -21934868.828 -222015.281 10 0 59542 73800.00000 0 -12873211.716 -21732180.496 2977686.833 10 0 59542 74700.00000 0 -12625857.049 -21212965.091 6119029.536 10 0 59542 75600.00000 0 -12098782.382 -20419624.077 9140445.923 10 0 59542 76500.00000 0 -11267387.939 -19402753.631 11982746.951 10 0 59542 77400.00000 0 -10118813.396 -18218899.446 14590311.445 10 0 59542 78300.00000 0 -8652737.577 -16928077.702 16912199.195 10 0 59542 79200.00000 0 -6881645.599 -15591170.759 18903162.880 10 0 59542 80100.00000 0 -4830552.249 -14267311.144 20524537.500 10 0 59542 81000.00000 0 -2536194.386 -13011366.978 21744989.417 10 0 59542 81900.00000 0 -45728.172 -11871636.582 22541110.943 10 0 59542 82800.00000 0 2585011.744 -10887849.761 22897850.291 10 0 59542 83700.00000 0 5293615.790 -10089558.895 22808770.798 10 0 59542 84600.00000 0 8013475.832 -9494985.217 22276137.185 10 0 59542 85500.00000 0 10676333.657 -9110365.524 21310830.271 10 0 59543 0.00000 0 13214894.725 -8929822.744 19932095.145 10 0 59543 900.00000 0 15565400.346 -8935761.508 18167129.838 10 0 59543 1800.00000 0 17670049.405 -9099768.193 16050527.068 10 0 59543 2700.00000 0 19479176.246 -9383973.732 13623579.487 10 0 59543 3600.00000 0 20953094.059 -9742819.473 10933465.106 10 0 59543 4500.00000 0 22063532.238 -10125150.049 8032328.775 10 0 59543 5400.00000 0 22794611.839 -10476544.747 4976277.709 10 0 59543 6300.00000 0 23143322.116 -10741789.805 1824309.747 10 0 59543 7200.00000 0 23119481.566 -10867389.071 -1362806.040 10 0 59543 8100.00000 0 22745187.610 -10804009.515 -4523676.562 10 0 59543 9000.00000 0 22053779.269 -10508761.108 -7597439.786 10 0 59543 9900.00000 0 21088356.469 -9947217.630 -10524907.747 10 0 59543 10800.00000 0 19899917.056 -9095095.340 -13249678.059 10 0 59543 11700.00000 0 18545187.637 -7939520.196 -15719195.110 10 0 59543 12600.00000 0 17084236.469 -6479830.626 -17885742.727 10 0 59543 13500.00000 0 15577965.312 -4727881.174 -19707351.261 10 0 59543 14400.00000 0 14085582.132 -2707832.061 -21148603.091 10 0 59543 15300.00000 0 12662157.663 -455430.170 -22181321.810 10 0 59543 16200.00000 0 11356365.950 1983192.727 -22785131.934 10 0 59543 17100.00000 0 10208502.140 4553159.161 -22947877.607 10 0 59543 18000.00000 0 9248860.377 7192859.017 -22665890.649 10 0 59543 18900.00000 0 8496540.577 9836257.199 -21944100.512 10 0 59543 19800.00000 0 7958735.981 12415403.634 -20795981.098 10 0 59543 20700.00000 0 7630534.028 14863043.734 -19243332.153 10 0 59543 21600.00000 0 7495241.944 17115221.974 -17315896.002 10 0 59543 22500.00000 0 7525226.423 19113770.066 -15050813.662 10 0 59543 23400.00000 0 7683234.731 20808574.404 -12491928.008 10 0 59543 24300.00000 0 7924143.366 22159525.640 -9688945.285 10 0 59543 25200.00000 0 8197061.197 23138065.607 -6696469.951 10 0 59543 26100.00000 0 8447697.624 23728263.278 -3572931.451 10 0 59543 27000.00000 0 8620893.689 23927371.420 -379424.725 10 0 59543 27900.00000 0 8663205.922 23745838.081 2821511.069 10 0 59543 28800.00000 0 8525429.571 23206770.956 5967148.881 10 0 59543 29700.00000 0 8164949.911 22344877.132 8995837.255 10 0 59543 30600.00000 0 7547817.703 21204924.085 11848242.614 10 0 59543 31500.00000 0 6650457.010 19839789.242 14468542.362 10 0 59543 32400.00000 0 5460930.102 18308183.679 16805542.333 10 0 59543 33300.00000 0 3979704.048 16672149.639 18813694.233 10 0 59543 34200.00000 0 2219885.988 14994441.099 20453991.534 10 0 59543 35100.00000 0 206917.659 13335900.908 21694725.786 10 0 59543 36000.00000 0 -2022256.533 11752947.114 22512089.070 10 0 59543 36900.00000 0 -4420510.762 10295275.276 22890612.196 10 0 59543 37800.00000 0 -6932290.552 9003872.903 22823432.388 10 0 59543 38700.00000 0 -9495721.415 7909427.650 22312388.005 10 0 59543 39600.00000 0 -12044983.364 7031193.142 21367941.559 10 0 59543 40500.00000 0 -14512851.108 6376356.134 20008935.745 10 0 59543 41400.00000 0 -16833294.013 5939927.071 18262190.188 10 0 59543 42300.00000 0 -18944028.349 5705154.204 16161949.433 10 0 59543 43200.00000 0 -20788917.550 5644439.561 13749194.971 10 0 59543 44100.00000 0 -22320123.323 5720714.797 11070836.084 10 0 59543 45000.00000 0 -23499921.537 5889216.538 8178796.084 10 0 59543 45900.00000 0 -24302110.938 6099585.111 5129011.651 10 0 59543 46800.00000 0 -24712959.559 6298198.066 1980363.967 10 0 59543 47700.00000 0 -24731652.861 6430641.098 -1206438.741 10 0 59543 48600.00000 0 -24370227.392 6444213.945 -4370007.501 10 0 59543 49500.00000 0 -23652994.584 6290367.984 -7449427.759 10 0 59543 50400.00000 0 -22615479.450 5926975.414 -10385403.427 10 0 59543 51300.00000 0 -21302917.989 5320336.698 -13121370.389 10 0 59543 52200.00000 0 -19768374.603 4446843.551 -15604560.598 10 0 59543 53100.00000 0 -18070555.878 3294228.436 -17786998.508 10 0 59543 54000.00000 0 -16271409.085 1862347.787 -19626412.742 10 0 59543 54900.00000 0 -14433602.476 163464.639 -21087046.935 10 0 59543 55800.00000 0 -12617989.510 -1777983.899 -22140354.957 10 0 59543 56700.00000 0 -10881160.189 -3926128.317 -22765567.281 10 0 59543 57600.00000 0 -9273179.774 -6234891.101 -22950116.862 10 0 59543 58500.00000 0 -7835608.431 -8649647.560 -22689914.807 10 0 59543 59400.00000 0 -6599884.583 -11109258.627 -21989468.242 10 0 59543 60300.00000 0 -5586140.718 -13548395.221 -20861835.245 10 0 59543 61200.00000 0 -4802503.258 -15900060.535 -19328414.377 10 0 59543 62100.00000 0 -4244908.459 -18098207.204 -17418569.443 10 0 59543 63000.00000 0 -3897444.883 -20080340.879 -15169093.345 10 0 59543 63900.00000 0 -3733210.821 -21790000.598 -12623518.532 10 0 59543 64800.00000 0 -3715652.610 -23179010.293 -9831285.138 10 0 59543 65700.00000 0 -3800328.608 -24209404.089 -6846781.633 10 0 59543 66600.00000 0 -3937024.312 -24854941.094 -3728276.409 10 0 59543 67500.00000 0 -4072127.885 -25102142.468 -536761.945 10 0 59543 68400.00000 0 -4151162.974 -24950804.000 2665264.075 10 0 59543 69300.00000 0 -4121368.018 -24413960.301 5815054.046 10 0 59543 70200.00000 0 -3934208.512 -23517301.050 8850874.273 10 0 59543 71100.00000 0 -3547711.335 -22298064.124 11713248.981 10 0 59543 72000.00000 0 -2928518.072 -20803453.820 14346156.487 10 0 59543 72900.00000 0 -2053566.864 -19088653.491 16698150.957 10 0 59543 73800.00000 0 -911329.102 -17214519.643 18723385.286 10 0 59543 74700.00000 0 497452.585 -15245058.261 20382513.389 10 0 59543 75600.00000 0 2159556.325 -13244792.897 21643453.732 10 0 59543 76500.00000 0 4049610.770 -11276137.806 22481999.586 10 0 59543 77400.00000 0 6130946.893 -9396888.118 22882265.470 10 0 59543 78300.00000 0 8356933.706 -7657932.604 22836963.262 10 0 59543 79200.00000 0 10672739.510 -6101283.809 22347505.399 10 0 59543 80100.00000 0 13017442.622 -4758505.686 21423936.215 10 0 59543 81000.00000 0 15326401.829 -3649601.005 20084695.976 10 0 59543 81900.00000 0 17533786.780 -2782400.783 18356225.191 10 0 59543 82800.00000 0 19575162.910 -2152476.606 16272419.574 10 0 59543 83700.00000 0 21390024.333 -1743574.837 13873948.374 10 0 59543 84600.00000 0 22924171.271 -1528550.240 11207450.771 10 0 59543 85500.00000 0 24131835.757 -1470756.480 8324626.804 10 0 59544 0.00000 0 24977470.290 -1525832.678 5281240.794 10 0 59544 900.00000 0 25437128.732 -1643809.810 2136054.316 10 0 59544 1800.00000 0 25499383.999 -1771448.260 -1050287.681 10 0 59544 2700.00000 0 25165748.551 -1854709.217 -4216403.278 10 0 59544 3600.00000 0 24450581.055 -1841257.722 -7301328.428 10 0 59544 4500.00000 0 23380484.502 -1682894.241 -10245661.968 10 0 59544 5400.00000 0 21993220.821 -1337814.844 -12992681.032 10 0 59544 6300.00000 0 20336186.105 -772606.936 -15489407.958 10 0 59544 7200.00000 0 18464507.918 36101.942 -17687610.442 10 0 59544 8100.00000 0 16438841.264 1100411.089 -19544717.757 10 0 59544 9000.00000 0 14322951.749 2420381.880 -21024636.927 10 0 59544 9900.00000 0 12181183.356 3983775.217 -22098453.969 10 0 59544 10800.00000 0 10075913.181 5766305.342 -22745006.889 10 0 59544 11700.00000 0 8065096.641 7732403.416 -22951318.724 10 0 59544 12600.00000 0 6200003.825 9836463.575 -22712880.779 10 0 59544 13500.00000 0 4523240.654 12024524.270 -22033778.390 10 0 59544 14400.00000 0 3067137.859 14236319.314 -20926653.921 10 0 59544 15300.00000 0 1852576.447 16407616.785 -19412504.422 10 0 59544 16200.00000 0 888300.959 18472750.963 -17520314.403 10 0 59544 17100.00000 0 170751.852 20367242.928 -15286527.434 10 0 59544 18000.00000 0 -315573.214 22030400.120 -12754363.865 10 0 59544 18900.00000 0 -597242.102 23407784.607 -9972995.646 10 0 59544 19800.00000 0 -710530.295 24453443.944 -6996592.794 10 0 59544 20700.00000 0 -699639.093 25131807.460 -3883259.856 10 0 59544 21600.00000 0 -614565.897 25419164.491 -693883.797 10 0 59544 22500.00000 0 -508718.651 25304658.655 2509082.400 10 0 59544 23400.00000 0 -436378.501 24790753.257 5662873.884 10 0 59544 24300.00000 0 -450122.110 23893146.185 8705678.016 10 0 59544 25200.00000 0 -598317.235 22640137.134 11577880.024 10 0 59544 26100.00000 0 -922802.027 21071474.434 14223262.167 10 0 59544 27000.00000 0 -1456850.241 19236731.910 16590129.745 10 0 59544 27900.00000 0 -2223511.542 17193286.868 18632339.376 10 0 59544 28800.00000 0 -3234398.981 15003987.676 20310207.667 10 0 59544 29700.00000 0 -4488975.557 12734612.343 21591281.920 10 0 59544 30600.00000 0 -5974369.486 10451227.747 22450958.176 10 0 59544 31500.00000 0 -7665724.393 8217562.485 22872935.836 10 0 59544 32400.00000 0 -9527067.522 6092504.290 22849502.190 10 0 59544 33300.00000 0 -11512656.942 4127826.393 22381644.041 10 0 59544 34200.00000 0 -13568748.711 2366236.185 21478987.334 10 0 59544 35100.00000 0 -15635707.874 839824.706 20159569.177 10 0 59544 36000.00000 0 -17650373.596 -431022.262 18449449.712 10 0 59544 36900.00000 0 -19548579.003 -1438210.589 16382174.089 10 0 59544 37800.00000 0 -21267720.918 -2186002.040 13998097.132 10 0 59544 38700.00000 0 -22749273.711 -2690558.424 11343585.355 10 0 59544 39600.00000 0 -23941144.542 -2978988.747 8470112.683 10 0 59544 40500.00000 0 -24799774.527 -3087942.536 5433267.514 10 0 59544 41400.00000 0 -25291901.367 -3061810.441 2291689.770 10 0 59544 42300.00000 0 -25395912.877 -2950608.496 -894042.593 10 0 59544 43200.00000 0 -25102737.842 -2807634.768 -4062557.854 10 0 59544 44100.00000 0 -24416239.168 -2686995.653 -7152845.585 10 0 59544 45000.00000 0 -23353094.229 -2641103.886 -10105402.572 10 0 59544 45900.00000 0 -21942167.680 -2718251.201 -12863350.068 10 0 59544 46800.00000 0 -20223401.984 -2960355.444 -15373503.488 10 0 59544 47700.00000 0 -18246270.137 -3400974.959 -17587376.207 10 0 59544 48600.00000 0 -16067852.338 -4063672.578 -19462100.246 10 0 59544 49500.00000 0 -13750613.365 -4960797.821 -20961247.688 10 0 59544 50400.00000 0 -11359969.628 -6092739.458 -22055537.875 10 0 59544 51300.00000 0 -8961743.590 -7447682.066 -22723416.990 10 0 59544 52200.00000 0 -6619608.330 -9001880.174 -22951498.248 10 0 59544 53100.00000 0 -4392626.276 -10720442.671 -22734852.726 10 0 59544 54000.00000 0 -2332983.097 -12558599.336 -22077143.058 10 0 59544 54900.00000 0 -484010.817 -14463401.215 -20990594.576 10 0 59544 55800.00000 0 1121416.642 -16375787.907 -19495801.148 10 0 59544 56700.00000 0 2462046.861 -18232938.670 -17621366.041 10 0 59544 57600.00000 0 3528920.316 -19970811.062 -15403381.319 10 0 59544 58500.00000 0 4325518.974 -21526761.456 -12884752.924 10 0 59544 59400.00000 0 4867383.390 -22842136.782 -10114382.191 10 0 59544 60300.00000 0 5181212.453 -23864726.575 -7146218.214 10 0 59544 61200.00000 0 5303482.585 -24550969.058 -4038199.206 10 0 59544 62100.00000 0 5278644.748 -24867814.590 -851104.153 10 0 59544 63000.00000 0 5156976.808 -24794164.037 2352661.086 10 0 59544 63900.00000 0 4992184.570 -24321817.750 5510316.770 10 0 59544 64800.00000 0 4838856.650 -23455892.327 8559973.586 10 0 59544 65700.00000 0 4749885.157 -22214685.856 11441879.927 10 0 59544 66600.00000 0 4773965.812 -20628996.968 14099624.017 10 0 59544 67500.00000 0 4953287.582 -18740927.298 16481264.155 10 0 59544 68400.00000 0 5321513.078 -16602219.852 18540362.328 10 0 59544 69300.00000 0 5902137.593 -14272206.034 20236899.238 10 0 59544 70200.00000 0 6707297.389 -11815450.800 21538052.142 10 0 59544 71100.00000 0 7737077.534 -9299197.794 22418820.661 10 0 59544 72000.00000 0 8979347.292 -6790724.090 22862489.593 10 0 59544 72900.00000 0 10410127.958 -4354716.760 22860921.857 10 0 59544 73800.00000 0 11994475.064 -2050781.214 22414678.565 10 0 59544 74700.00000 0 13687835.082 68815.572 21532966.968 10 0 59544 75600.00000 0 15437817.136 1961075.144 20233420.499 10 0 59544 76500.00000 0 17186303.428 3593793.940 18541718.220 10 0 59544 77400.00000 0 18871808.697 4946626.508 16491053.796 10 0 59544 78300.00000 0 20431989.711 6011646.078 14121466.520 10 0 59544 79200.00000 0 21806200.531 6793383.938 11479048.927 10 0 59544 80100.00000 0 22937988.179 7308350.447 8615047.260 10 0 59544 81000.00000 0 23777426.910 7584061.628 5584872.456 10 0 59544 81900.00000 0 24283196.145 7657614.875 2447040.180 10 0 59544 82800.00000 0 24424318.174 7573875.165 -737940.643 10 0 59544 83700.00000 0 24181485.954 7383348.450 -3908710.977 10 0 59544 84600.00000 0 23547927.767 7139830.891 -7004216.620 10 0 59544 85500.00000 0 22529774.229 6897931.150 -9964854.933 99